Regional Weather Roundup
Issued by NWS

Home | Current Version | Previous Version | Text Only | Print | Product List | Glossary On
Versions: 1 2 3 4 5 6 7 8 9 10 11 12 13 14 15 16 17 18 19 20 21 22 23 24 25 26 27 28 29 30 31 32 33 34 35 36 37 38 39 40 41 42 43 44 45 46 47 48 49 50
000
ASUS43 KTOP 140859
RWRKS

WEATHER ROUNDUP FOR KANSAS
NATIONAL WEATHER SERVICE GOODLAND KS
300 AM CST THU DEC 14 2017

NOTE:  "FAIR" INDICATES FEW OR NO CLOUDS BELOW 12,000 FEET WITH NO
SIGNIFICANT WEATHER AND/OR OBSTRUCTIONS TO VISIBILITY.

KSZ001>006-013>018-027>032-041>047-141000-
NORTHWEST KANSAS

CITY           SKY/WX    TMP DP  RH WIND       PRES   REMARKS
GOODLAND       CLOUDY    36  19  50 NW10      30.12R WCI  28
HAYS           MOCLDY    39  23  52 N14       30.09  WCI  31
HILL CITY      CLOUDY    38  23  55 NW7       30.11R
RUSSELL        PTCLDY    35  25  66 N7        30.07R
$$

KSZ061>065-074>080-084>089-141000-
SOUTHWEST KANSAS

CITY           SKY/WX    TMP DP  RH WIND       PRES   REMARKS
DODGE CITY     PTCLDY    38  20  48 N10       30.09R WCI  31
GARDEN CITY    CLOUDY    38  19  46 N10       30.10R WCI  31
GREAT BEND     CLOUDY    36  22  56 N8        30.09R
LIBERAL        PTCLDY    36  19  50 N6        30.10R
$$

KSZ066>073-081>083-090>101-141000-
SOUTHEAST KANSAS

CITY           SKY/WX    TMP DP  RH WIND       PRES   REMARKS
CHANUTE        CLEAR     31  25  78 NW5       30.03R
COFFEYVILLE    CLEAR     34  27  75 N9        30.02R
HUTCHINSON     MOCLDY    36  25  64 N8        30.06R
MEDICINE LODGE   N/A     42  25  50 N9        30.05R
NEWTON         CLEAR     28  23  81 N8        30.06R
PARSONS        CLEAR     37  28  70 N8        30.03R
WICHITA INTL   PTCLDY    35  24  64 N8        30.06R
WICHITA JABRA  PTCLDY    30  24  78 NW7       30.06R
WICHITA MCCONL PTCLDY    34  24  66 N8        30.05R
WINFIELD       CLOUDY    35  26  69 N9        30.05R
$$

KSZ007>012-019>026-033>040-048>060-102>105-141000-
NORTHEAST KANSAS

CITY           SKY/WX    TMP DP  RH WIND       PRES   REMARKS
CONCORDIA      PTCLDY    29  24  82 NW7       30.06R
EMPORIA        CLEAR     29  24  82 NW8       30.03R
LAWRENCE       CLOUDY    32  28  85 NW3       30.02R
MANHATTAN      CLOUDY    35  26  69 VRB3      30.06R
OLATHE IND     CLOUDY    34  28  79 NW7       30.01R
OLATHE EXE     CLOUDY    36  27  69 N7        30.00R
SALINA         CLEAR     29  23  78 N6        30.08R
TOPEKA BILLARD CLOUDY    36  28  73 NW7       30.03R
TOPEKA FORBES  CLOUDY    37  28  70 NW12      30.02R WCI  29
$$




USA.gov is the U.S. government's official web portal to all federal, state and local government web resources and services.